Regional Weather Roundup
Issued by NWS

Home | Current Version | Previous Version | Graphics & Text | Print | Product List | Glossary On
Versions: 1 2 3 4 5 6 7 8 9 10 11 12 13 14 15 16 17 18 19 20 21 22 23 24 25 26 27 28 29 30 31 32 33 34 35 36 37 38 39 40 41 42 43 44 45 46 47 48 49 50
000
ASUS43 KLMK 271502
RWRKY
KENTUCKY REGIONAL WEATHER ROUNDUP
NATIONAL WEATHER SERVICE LOUISVILLE KY
1100 AM EDT TUE JUN 27 2017

NOTE "FAIR" INDICATES FEW OR NO CLOUDS BELOW 12,000 FEET
WITH NO SIGNIFICANT WEATHER AND/OR OBSTRUCTIONS TO VISIBILITY.

KYZ001>023-026-027-061>063-070>075-271600-
WESTERN AND SOUTH CENTRAL KENTUCKY

CITY           SKY/WX    TMP DP  RH WIND       PRES   REMARKS
PADUCAH        SUNNY     73  52  47 E10       30.14F
HENDERSON      SUNNY     71  54  54 VRB3      30.17S
OWENSBORO      SUNNY     71  55  56 N7        30.17S
HOPKINSVILLE   SUNNY     72  55  54 E7        30.15S
BOWLING GREEN  SUNNY     73  53  49 NE8       30.16F
GLASGOW        NOT AVBL
$$

KYZ024-025-028>034-038-045-046-053-271600-
NORTH CENTRAL KENTUCKY

CITY           SKY/WX    TMP DP  RH WIND       PRES   REMARKS
LOUISVILLE/SDF MOSUNNY   72  53  51 VRB3      30.16F
LOUISVILLE/LOU SUNNY     71  55  56 N6        30.17S
FORT KNOX      SUNNY     69  52  55 NW6       30.15F
$$

KYZ035>037-039>044-047>052-055>060-089>105-271600-
NORTHEAST KENTUCKY

CITY           SKY/WX    TMP DP  RH WIND       PRES   REMARKS
LEXINGTON      SUNNY     70  53  54 NW8       30.17F
COVINGTON      MOSUNNY   66  50  56 NW9       30.16S
FRANKFORT      SUNNY     68  54  60 W6        30.16S
$$

KYZ054-064>069-076>088-106>120-271600-
SOUTHEAST KENTUCKY

CITY           SKY/WX    TMP DP  RH WIND       PRES   REMARKS
JACKSON        SUNNY     68  53  58 VRB3      30.17S
LONDON         SUNNY     70  47  43 NW5       30.17F
SOMERSET       SUNNY     68  50  52 CALM      30.18S
MIDDLESBORO    PTSUNNY   70  53  53 NE5       30.17S
MONTICELLO     SUNNY     71  53  52 VRB5      30.19S
$$




USA.gov is the U.S. government's official web portal to all federal, state and local government web resources and services.